Location: Aubervilles
(48.9167°N, 2.3833°E)
Time: 14:05:59
(UTC+00:00)

Daily predictions for brighter satellites

Satellite Brightness Start Highest point End
(mag) Time Altitude Azimuth Time Altitude Azimuth Time Altitude Azimuth
Cosmos 2208 Rocket 4.2 19:45:03 10° NNW 19:50:30 87° WSW 19:55:57 10° SSE
IRS-1A Rocket 4.4 19:46:04 10° SSE 19:51:48 88° ENE 19:57:42 10° NNW
SL-4 R/B 2.3 19:49:41 10° WNW 19:54:01 79° SSW 19:58:40 10° ESE
DELTA 2 R/B (1) 4.5 19:49:56 10° WSW 19:54:46 31° S 19:59:37 10° ESE
Cosmos 1242 Rocket 4.5 19:53:26 10° ESE 19:55:16 14° E 19:57:07 10° ENE
IGS 5A 4.0 19:51:54 10° SE 19:55:48 42° ENE 19:59:44 10° N
FALCON 9 DEB 2.9 19:54:30 10° WNW 19:57:33 72° SSW 20:00:34 10° ESE
NOSS 2-2 (C) 4.5 19:54:47 10° NW 20:00:00 82° NE 20:07:22 10° SE
Cosmos 1943 4.2 19:56:20 10° NW 20:01:42 46° WSW 20:07:03 10° S
USA 215 4.3 19:56:11 10° ENE 20:02:17 44° N 20:08:25 10° WNW
X-37B 1.3 20:01:14 10° WSW 20:04:12 35° S 20:07:10 10° ESE
Cosmos 2263 Rocket 3.0 20:00:19 10° SW 20:05:47 56° NW 20:11:18 10° NNE
Cosmos 1606 2.7 20:02:32 10° S 20:06:14 57° E 20:09:57 10° NNE
Sich 1 3.6 20:05:35 10° N 20:09:41 42° ENE 20:13:40 11° SE
Landsat 7 4.1 20:05:41 10° SSE 20:10:19 56° ENE 20:14:59 10° N
Cosmos 1844 Rocket 3.0 20:06:26 10° S 20:11:37 42° ESE 20:16:51 10° NE
BREEZE-M DEB (TANK) 4.0 20:11:50 10° WSW 20:13:17 15° SSW 20:14:59 10° S
Spot 2 Rocket 4.4 20:08:53 11° SE 20:13:19 35° ENE 20:17:52 10° N
USA 305 4.1 20:16:33 10° WNW 20:20:37 41° N 20:24:42 10° ENE
BREEZE-M R/B 2.9 20:21:56 10° SSW 20:24:03 22° SSE 20:24:56 18° ESE
MetOp-B 4.2 20:18:58 10° SSE 20:24:16 69° ENE 20:29:37 10° N
OBJECT-B 3.3 20:22:20 10° SW 20:24:52 21° W 20:27:25 10° NW
Cosmos 1844 4.0 20:19:56 10° S 20:25:21 44° ESE 20:30:44 10° NE
Cosmos 1933 3.8 20:24:25 10° SSE 20:28:13 42° E 20:32:03 10° NNE
[s.n.48335] 3.3 20:30:39 10° SSW 20:33:00 28° SE 20:34:27 17° E
[s.n.48334] 3.3 20:30:43 10° SSW 20:33:05 28° SE 20:34:30 17° E
[s.n.48333] 3.3 20:30:53 10° SSW 20:33:10 27° SE 20:34:08 21° ESE
[s.n.48332] 3.3 20:30:48 10° SSW 20:33:11 28° SE 20:34:36 17° E
[s.n.48331] 3.3 20:30:57 10° SSW 20:33:19 28° SE 20:34:44 18° E
[s.n.48330] 3.3 20:31:08 10° SSW 20:33:25 27° SE 20:34:23 21° ESE
[s.n.48329] 3.3 20:31:07 10° SSW 20:33:29 29° SE 20:34:54 18° E
[s.n.48328] 3.3 20:31:17 10° SSW 20:33:34 28° SE 20:34:31 21° ESE
[s.n.48327] 3.3 20:31:20 10° SSW 20:33:38 28° SE 20:34:36 21° ESE
[s.n.48326] 3.3 20:31:19 10° SSW 20:33:41 28° SE 20:35:00 18° E
ERS-1 Rocket 3.8 20:31:14 15° SE 20:34:50 36° ENE 20:39:23 10° N
[s.n.48324] 3.2 20:34:07 10° SSW 20:36:32 30° SE 20:37:54 19° E
Cosmos 1151 Rocket 3.9 20:34:17 17° SE 20:37:01 32° E 20:40:55 10° NNE
[s.n.48325] 3.2 20:34:45 10° SSW 20:37:10 31° SE 20:38:31 19° E
[s.n.48323] 3.2 20:35:00 10° SSW 20:37:20 30° SE 20:38:14 23° ESE
[s.n.48321] 3.2 20:35:12 10° SSW 20:37:32 30° SE 20:38:26 23° ESE
[s.n.48320] 3.2 20:35:15 10° SSW 20:37:36 30° SE 20:38:30 23° ESE
ARIANE 5 R/B 3.0 20:34:30 17° SE 20:37:36 46° ENE 20:41:46 10° N
[s.n.48322] 3.2 20:35:10 10° SSW 20:37:36 31° SE 20:38:55 20° E
[s.n.48319] 3.2 20:35:21 10° SSW 20:37:41 30° SE 20:38:34 24° ESE
[s.n.48318] 3.2 20:35:21 10° SSW 20:37:42 30° SE 20:38:35 23° ESE
ATLAS 5 CENTAUR R/B 2.5 20:32:29 10° NW 20:37:51 63° NE 20:42:54 16° ESE
[s.n.48317] 3.2 20:35:31 10° SSW 20:37:51 30° SE 20:38:44 24° ESE
[s.n.48316] 3.2 20:35:35 10° SSW 20:37:56 30° SE 20:38:49 24° ESE
[s.n.48315] 3.2 20:35:35 10° SSW 20:38:01 31° SE 20:39:19 20° E
[s.n.48314] 3.2 20:35:39 10° SSW 20:38:05 31° SE 20:39:26 19° E
[s.n.48313] 3.2 20:35:45 10° SSW 20:38:11 31° SE 20:39:30 20° E
[s.n.48312] 3.2 20:35:50 10° SSW 20:38:16 31° SE 20:39:34 20° E
[s.n.48311] 3.2 20:35:55 10° SSW 20:38:22 31° SE 20:39:39 20° E
[s.n.48310] 3.2 20:35:58 10° SSW 20:38:23 31° SE 20:39:33 21° E
[s.n.48309] 3.2 20:36:03 10° SSW 20:38:27 31° SE 20:39:38 21° E
[s.n.48308] 3.2 20:36:08 10° SSW 20:38:35 32° SE 20:39:55 20° E
[s.n.48307] 3.1 20:36:19 10° SSW 20:38:41 31° SE 20:39:35 24° ESE
[s.n.48306] 3.2 20:36:17 10° SSW 20:38:43 32° SE 20:40:01 20° E
[s.n.48305] 3.2 20:36:24 10° SSW 20:38:50 32° SE 20:40:08 20° E
[s.n.48304] 3.1 20:36:33 10° SSW 20:38:55 31° SE 20:39:46 24° ESE
[s.n.48303] 3.2 20:36:33 10° SSW 20:39:00 32° SE 20:40:17 20° E
[s.n.48302] 3.2 20:36:37 10° SSW 20:39:04 32° SE 20:40:22 20° E
[s.n.48301] 3.1 20:36:48 10° SSW 20:39:11 31° SE 20:40:04 24° ESE
[s.n.48300] 3.1 20:36:51 10° SSW 20:39:14 31° SE 20:40:06 24° ESE
[s.n.48299] 3.1 20:36:59 10° SSW 20:39:21 31° SE 20:40:14 24° ESE
[s.n.48298] 3.2 20:36:58 10° SSW 20:39:25 32° SE 20:40:42 20° E
[s.n.48297] 3.2 20:37:03 10° SSW 20:39:30 32° SE 20:40:49 20° E
[s.n.48296] 3.1 20:37:08 10° SSW 20:39:35 32° SE 20:40:54 20° E
[s.n.48295] 3.1 20:37:19 10° SSW 20:39:41 31° SE 20:40:32 25° ESE
USA 306 4.1 20:35:40 10° WNW 20:39:44 41° N 20:43:48 10° ENE
[s.n.48294] 3.1 20:37:24 10° SSW 20:39:47 31° SE 20:40:38 25° ESE
[s.n.48293] 3.1 20:37:28 10° SSW 20:39:50 32° SE 20:40:42 25° ESE
[s.n.48292] 3.1 20:37:26 10° SSW 20:39:54 32° SE 20:41:11 21° E
[s.n.48291] 3.1 20:37:38 10° SSW 20:40:01 32° SE 20:40:52 25° ESE
[s.n.48290] 3.1 20:37:41 10° SSW 20:40:03 32° SE 20:40:54 25° ESE
CREW DRAGON DEMO-1 DEB 3.5 20:37:36 10° W 20:40:11 46° N 20:42:46 10° ENE
[s.n.48289] 3.1 20:37:48 10° SSW 20:40:12 32° SE 20:41:03 25° ESE
[s.n.48288] 3.1 20:37:52 10° SSW 20:40:15 32° SE 20:41:06 25° ESE
[s.n.48286] 3.1 20:37:56 10° SSW 20:40:19 32° SE 20:41:11 25° ESE
[s.n.48287] 3.1 20:37:57 10° SSW 20:40:19 32° SE 20:41:10 25° ESE
[s.n.48285] 3.1 20:38:07 10° SSW 20:40:31 32° SE 20:41:21 25° ESE
[s.n.48284] 3.1 20:38:11 10° SSW 20:40:35 32° SE 20:41:25 25° ESE
[s.n.48283] 3.1 20:38:17 10° SSW 20:40:41 32° SE 20:41:31 25° ESE
[s.n.48282] 3.1 20:38:22 10° SSW 20:40:46 32° SE 20:41:36 25° ESE
[s.n.48281] 3.1 20:38:22 10° SSW 20:40:51 33° SE 20:42:08 21° E
[s.n.48280] 3.1 20:38:32 10° SSW 20:40:56 32° SE 20:41:47 25° ESE
[s.n.48279] 3.1 20:38:36 10° SSW 20:41:00 32° SE 20:41:50 25° ESE
[s.n.48278] 3.1 20:38:35 10° SSW 20:41:05 33° SE 20:42:22 21° E
[s.n.48277] 3.1 20:38:47 10° SSW 20:41:11 32° SE 20:42:01 25° ESE
[s.n.48276] 3.1 20:38:48 10° SSW 20:41:17 34° SE 20:42:35 21° E
Cosmos 1833 Rocket 3.9 20:37:22 10° NNW 20:42:20 30° NE 20:46:34 13° ESE
Cosmos 1386 Rocket 4.5 20:36:53 10° N 20:42:56 85° W 20:49:00 10° S
SPOT 1/Viking Rocket 3.6 20:38:43 14° SSE 20:43:13 78° ENE 20:48:26 10° NNW
Ariane Rocket 4.4 20:39:31 10° SSW 20:44:08 36° W 20:48:48 10° NNW
FALCON 9 DEB 4.3 20:42:55 10° W 20:45:30 25° SW 20:46:48 19° S
Cosmos 1745 Rocket 4.1 20:39:23 10° N 20:45:39 80° W 20:51:47 10° S
Cosmos 1805 Rocket 3.9 20:41:39 10° NNW 20:45:57 66° W 20:50:07 11° S
Cosmos 1709 Rocket 4.0 20:42:40 10° N 20:48:48 67° ENE 20:53:36 17° SSE
Cosmos 1666 4.5 20:48:03 10° NNE 20:50:38 17° ENE 20:51:54 15° E
Cosmos 1437 Rocket 3.2 20:47:15 10° SSW 20:51:04 63° WNW 20:54:59 10° N
Gbstr 26 Del rocket 4.4 20:47:49 10° WSW 20:55:45 85° NNW 21:02:31 10° ENE
Cosmos 1633 Rocket 3.1 20:51:36 10° N 20:55:59 62° ENE 20:58:36 23° SSE
SPOT 3 Rocket 4.2 20:51:08 10° S 20:56:10 53° W 21:01:13 10° NNW
Cosmos 1354 Rocket 4.2 20:51:44 11° S 20:56:32 49° ESE 21:01:35 10° NNE
FALCON 9 DEB 4.4 20:55:33 10° W 20:58:06 24° SW 20:59:00 21° S
SPOT 5 3.3 20:55:30 21° SE 20:58:38 54° ENE 21:03:44 10° N
Cosmos 1782 3.0 20:56:56 23° SSE 20:59:12 51° E 21:03:06 10° NNE
Cosmos 2315 Rocket 4.1 20:55:20 13° S 21:01:00 63° E 21:07:18 10° NNE
COSMOS 2406 4.0 20:57:01 10° NNW 21:02:21 40° NE 21:05:59 19° ESE
Meteor 1-20 Rocket 4.4 20:56:55 10° NNW 21:02:35 71° W 21:07:16 15° S
Cosmos 1470 Rocket 4.1 20:58:47 10° N 21:03:05 44° ENE 21:05:13 26° SE
USA 307 4.0 21:00:12 10° WNW 21:04:17 43° N 21:08:24 10° E
USA 290 2.4 21:01:52 10° NNW 21:05:06 68° WSW 21:06:28 31° S
S3M 4.3 20:59:41 10° SSW 21:06:04 70° WNW 21:12:26 10° N
Cosmos 1328 Rocket 3.7 21:06:37 24° SSE 21:09:03 54° E 21:13:23 10° NNE
Cosmos 2082 Rocket 3.6 21:06:21 10° NNW 21:11:08 28° NE 21:14:57 14° E
CARTOSAT-1 3.5 21:11:00 25° SSE 21:13:30 86° W 21:17:51 10° NNW
Terra 2.1 21:14:55 28° SE 21:17:15 56° ENE 21:21:56 10° N
USA 308 3.9 21:13:37 10° WNW 21:17:46 45° N 21:21:39 11° E
Cosmos 1933 Rocket 4.2 21:13:43 10° N 21:17:51 41° ENE 21:19:23 30° ESE
Cosmos 1666 Rocket 3.9 21:15:21 10° NNW 21:19:44 63° W 21:22:27 22° S
Cosmos 968 Rocket 4.5 21:14:39 10° SW 21:19:45 49° WNW 21:24:51 10° NNE
Cosmos 1500 3.1 21:16:16 10° N 21:20:02 67° E 21:21:17 39° SSE
USA 245 3.7 21:22:47 24° WSW 21:23:16 26° W 21:25:17 10° NW
Resurs 01 Rocket 3.7 21:21:31 10° SSW 21:25:05 23° W 21:28:41 10° NW
CZ-4C R/B 3.1 21:19:06 10° NW 21:26:06 69° NE 21:31:36 23° ESE
Cosmos 1271 Rocket 4.0 21:27:36 25° E 21:27:43 25° E 21:31:01 10° NE
Cosmos 1602 4.5 21:25:14 10° NNW 21:28:57 48° W 21:30:58 24° SSW
Cosmos 1242 Rocket 3.4 21:26:46 14° SSW 21:29:42 47° WNW 21:33:10 10° N
JB-3 4.3 21:25:47 10° N 21:29:45 82° WNW 21:31:52 26° SSW
NOSS 3-3 (A) 4.0 21:26:05 13° SSW 21:31:03 52° ESE 21:37:22 10° NE
NOSS 3-3 (C) 4.0 21:26:19 14° SSW 21:31:09 51° ESE 21:37:26 10° NE
Cosmos 1538 Rocket 4.4 21:26:05 10° NNW 21:31:22 53° ENE 21:33:50 30° ESE
Cosmos 1536 4.4 21:28:38 10° NNE 21:31:50 22° ENE 21:32:41 20° E
SL-4 R/B 3.7 21:29:40 10° W 21:33:19 24° SW 21:34:29 22° SSW
ATLAS 2AS CENTAUR R/B 3.9 21:27:02 10° NW 21:34:03 39° NNE 21:40:35 10° E
Cosmos 2228 Rocket 4.2 21:33:47 26° E 21:34:17 26° E 21:37:59 10° NNE
Cosmos 2278 Rocket 2.8 21:36:19 32° SE 21:37:50 37° ESE 21:43:00 10° NE
X-37B 1.9 21:37:31 10° WSW 21:39:33 29° SW 21:39:33 29° SW
USA 215 3.9 21:38:21 10° E 21:44:41 55° NNE 21:51:02 10° WNW
SJ 16-02 2.1 21:47:16 33° ESE 21:47:20 33° ESE 21:51:20 10° NE
Cosmos 773 Rocket 4.2 21:45:59 10° NNW 21:51:15 65° WSW 21:53:29 34° S
Iridium 4 Rocket 3.7 21:49:01 32° S 21:51:46 81° E 21:57:41 10° N
Cosmos 1844 Rocket 4.1 21:50:24 10° WSW 21:55:34 38° NW 22:00:47 10° NNE
Cosmos 158 Rocket 4.2 21:55:06 10° NNW 21:59:54 54° ENE 22:01:24 38° ESE
USA 305 3.3 21:56:50 10° WNW 22:01:04 59° NNE 22:02:57 31° E
Cosmos 1812 2.9 22:00:48 46° SSW 22:01:49 70° WNW 22:05:40 10° N
Meteor 1-5 Rocket 4.2 21:56:50 10° NNW 22:02:16 70° W 22:04:30 35° S
deb Kosmos-1763 3.9 21:59:08 10° NNW 22:02:41 69° ENE 22:02:48 68° E
Cosmos 1943 Rocket 4.2 22:08:48 13° E 22:08:48 13° E 22:10:46 10° ENE
Cosmos 1437 4.1 22:09:39 28° W 22:09:58 29° WNW 22:12:32 10° N
Cosmos 1544 4.0 22:09:52 10° N 22:13:05 36° ENE 22:13:05 36° ENE
ERS-1 Rocket 4.1 22:11:13 23° SW 22:13:37 35° W 22:18:13 10° NNW
CREW DRAGON DEMO-1 DEB 4.4 22:12:09 10° WNW 22:13:39 28° NW 22:13:39 28° NW
Cosmos 1777 Rocket 4.0 22:14:04 29° SSW 22:16:49 78° WNW 22:22:04 10° NNE
H-2A R/B 4.1 22:14:52 10° N 22:18:59 53° WNW 22:20:37 32° SW
USA 306 3.1 22:15:51 10° WNW 22:20:08 70° NNE 22:21:14 46° E
Cosmos 2154 Rocket 4.0 22:14:47 10° N 22:21:11 85° E 22:23:35 41° SSE
ATLAS 5 CENTAUR R/B 3.4 22:17:20 10° WNW 22:22:25 33° WSW 22:24:26 27° SSW
Cosmos 1515 Rocket 4.4 22:21:43 29° SW 22:23:34 47° WNW 22:27:51 10° N
Cosmos 923 Rocket 4.1 22:19:26 10° NNW 22:24:40 65° ENE 22:26:07 46° SE
Cosmos 1743 3.5 22:21:35 10° N 22:25:11 39° ENE 22:25:11 39° ENE
Cosmos 1869 Rocket 3.3 22:21:28 10° N 22:25:50 87° E 22:26:20 69° SSE
Cosmos 1666 3.5 22:22:51 10° NNW 22:26:23 40° W 22:26:45 39° WSW
Cosmos 1833 Rocket 2.9 22:21:04 10° NW 22:26:37 58° WSW 22:28:16 42° SSW
Cosmos 2184 Rocket 4.3 22:23:22 10° NNW 22:29:30 60° W 22:32:10 34° SSW
Cosmos 1898 Rocket 4.4 22:30:44 31° ESE 22:30:47 31° E 22:35:27 10° NE
Meteor 1-27 Rocket 3.7 22:31:43 46° S 22:33:32 78° E 22:39:26 10° NNE
ALOS 2 3.4 22:34:29 37° E 22:35:07 39° ENE 22:39:12 10° N
Gbstr 26 Del rocket 4.3 22:36:05 10° W 22:43:32 70° N 22:49:39 10° E
Cosmos 962 Rocket 4.4 22:38:03 10° N 22:44:12 76° E 22:46:01 48° SSE
Cosmos 2084 3.7 22:42:56 41° WSW 22:44:14 66° NW 22:48:30 10° NE
USA 307 2.8 22:40:19 10° WNW 22:44:37 86° NNE 22:44:50 80° E
Cosmos 1707 Rocket 3.6 22:46:34 59° E 22:46:34 59° E 22:50:52 10° NNE
COSMOS 2406 3.9 22:41:25 10° NW 22:46:42 41° WSW 22:48:02 35° SW
Nadezhda 1 Rocket 4.1 22:47:56 37° SSW 22:50:36 72° W 22:56:54 10° N
Meteor 1-11 Rocket 4.3 22:47:29 10° NNW 22:53:16 52° W 22:55:12 37° SW
Terra 3.7 22:53:47 17° WSW 22:55:21 20° W 22:58:54 10° NW
Cosmos 2082 Rocket 2.2 22:50:07 10° NNW 22:55:41 65° WSW 22:56:47 53° SSW
Okean 1 4.1 22:57:49 42° ENE 22:57:49 42° ENE 23:01:08 10° NNE
USA 308 2.9 22:53:43 10° WNW 22:57:44 75° W 22:57:44 75° W
Cosmos 2181 Rocket 4.2 22:57:24 45° SE 22:58:52 54° E 23:04:50 10° NNE
Spot 4 3.8 22:59:10 63° SSW 22:59:50 73° WSW 23:04:43 10° NNW
Cosmos 990 Rocket 3.9 22:59:43 61° SE 23:00:16 66° ESE 23:05:29 10° NNE
Cosmos 1340 Rocket 2.9 22:58:12 10° NNW 23:02:08 71° W 23:02:08 71° W
COBE Rocket 4.3 23:02:19 48° ESE 23:03:14 56° ENE 23:08:14 10° N
Cosmos 1271 Rocket 4.2 23:02:42 28° W 23:03:35 31° WNW 23:07:11 10° N
Cosmos 2112 Rocket 4.0 22:58:13 10° NNW 23:03:37 87° ENE 23:04:36 61° SSE
Cosmos 1536 3.8 23:04:37 10° NNW 23:08:23 37° W 23:08:23 37° W
Cosmos 2341 Rocket 4.0 23:02:32 10° N 23:08:58 82° W 23:10:49 50° S
NOSS 3-4 (A) 3.9 23:05:01 10° NW 23:11:53 62° SW 23:14:10 44° S
NOSS 3-4 (C) 3.9 23:05:07 10° NW 23:12:00 63° SW 23:14:16 44° S
Cosmos 2228 Rocket 4.3 23:11:15 30° WSW 23:12:20 35° WNW 23:16:27 10° N
CZ-4C R/B 3.7 23:07:53 10° NW 23:14:36 39° WSW 23:16:47 33° SSW
Cosmos 2366 rocket 3.9 23:10:01 10° N 23:16:12 75° E 23:17:51 51° SSE
Cosmos 1975 3.2 23:16:26 10° N 23:20:04 54° ENE 23:20:04 54° ENE
Cosmos 1733 Rocket 3.0 23:16:19 10° NNW 23:20:35 75° W 23:20:35 75° W
Cosmos 2278 Rocket 3.2 23:18:05 19° WSW 23:21:52 43° NW 23:27:15 10° NNE
SeaSat 1 3.0 23:20:23 10° NE 23:24:55 43° ESE 23:24:55 43° ESE
ATLAS 2AS CENTAUR R/B 2.7 23:18:18 10° NW 23:25:43 79° SW 23:27:59 47° SSE
SJ 16-02 2.9 23:24:13 23° W 23:25:55 31° WNW 23:29:54 10° N
USA 215 3.1 23:25:10 42° SE 23:27:35 75° SW 23:34:08 10° WNW
Cosmos 1515 4.1 23:29:22 58° NNW 23:29:22 58° NNW 23:32:39 10° N
Cosmos 1818 3.8 23:23:24 10° NW 23:28:53 66° NE 23:30:38 43° ESE
Cosmos 1908 Rocket 3.9 23:26:00 10° N 23:30:25 54° ENE 23:30:37 53° E
Thor Agena Rocket 3.7 23:25:37 10° NNE 23:30:45 55° E 23:31:15 52° ESE
Cosmos 2218 Rocket 3.9 23:25:03 10° N 23:31:21 84° W 23:32:57 53° S
Cosmos 1680 Rocket 3.9 23:27:14 10° NNW 23:32:22 49° WSW 23:32:49 48° WSW
Cosmos 2369 Rocket 3.1 23:34:06 32° ESE 23:34:20 33° ESE 23:39:18 10° NE
Meteor 2-9 Rocket 4.2 23:31:40 10° NNW 23:37:31 77° W 23:38:37 59° SSW
Cosmos 1937 Rocket 3.3 23:40:21 72° S 23:40:53 85° ESE 23:46:05 10° NNE
USA 305 4.5 23:36:55 10° WNW 23:39:00 25° W 23:39:00 25° W
Meteor 2-4 Rocket 3.9 23:42:44 53° SE 23:43:46 62° E 23:49:24 10° NNE
Meteor 1-18 Rocket 4.1 23:44:04 60° SSW 23:45:10 88° W 23:50:50 10° NNE
Cosmos 489 Rocket 4.4 23:40:34 10° NNW 23:46:49 84° WSW 23:48:22 54° SSE
Cosmos 44 3.4 23:41:28 10° NW 23:46:55 74° SW 23:47:25 69° S
Cosmos 1238 Rocket 4.3 23:43:44 10° NNW 23:49:59 51° W 23:51:21 43° SW
Nimbus 7 Rocket 4.3 23:44:42 10° NNE 23:50:36 87° WNW 23:52:02 55° SSW
Cosmos 1943 Rocket 2.1 23:50:17 63° S 23:51:09 77° ESE 23:56:47 10° NNE
Cosmos 858 Rocket 4.4 23:52:23 65° SW 23:53:10 82° WNW 23:58:25 10° NNE
